Dallas, TX

5:33 AM CST on January 16, 2017 (GMT -0600)
Dallas Love

Weather History for KDAL - April, 2014

Change the Weather History Date:

Saturday, April 5, 2014

  Actual Average Record
Temperature  
Mean Temperature 52 °F -  
Max Temperature 55 °F 71 °F 87 °F (2016)
Min Temperature 50 °F 52 °F 42 °F (2011)
Degree Days  
Heating Degree Days 12    
Growing Degree Days 2 (Base 50)    
Moisture  
Dew Point 36 °F    
Average Humidity 54    
Maximum Humidity 74    
Minimum Humidity 40    
Precipitation  
Precipitation 0.05 in - - ()
Sea Level Pressure  
Sea Level Pressure 30.05 in    
Wind  
Wind Speed 8 mph (East)    
Max Wind Speed 13 mph    
Max Gust Speed -    
Visibility 10 miles    
Events Rain    
Averages and records for this station are not official NWS values.
T = Trace of Precipitation, MM = Missing Value Source: NWS Daily Summary

Daily Weather History Graph

Daily Weather History Graph

Search for Another Location

Airport or City:

Trip Planner

Search our weather history database for the weather conditions in past years. The results will help you decide how hot, cold, wet, or windy it might be!

Date:

Astronomy

Apr. 05, 2014 Rise Set
Actual Time 7:10 AM CDT 7:50 PM CDT
Civil Twilight 6:45 AM CDT 8:15 PM CDT
Nautical Twilight 6:15 AM CDT 8:44 PM CDT
Astronomical Twilight 5:45 AM CDT 9:14 PM CDT
Moon 11:30 AM CDT (4/5) 12:50 AM CDT (4/5)
Length of Visible Light 13h 30m
Length of Day
12h 40m
Waxing Crescent, 34% of the Moon is Illuminated
Apr 5
Waxing Crescent
Apr 7
First Quarter
Apr 15
Full
Apr 22
Last Quarter
Apr 29
New

Hourly Weather History & Observations

Time (CDT) Temp. Dew Point Humidity Pressure Visibility Wind Dir Wind Speed Gust Speed Precip Events Conditions
12:53 AM 52.0 °F 37.0 °F 57% 30.12 in 10.0 mi East 4.6 mph - N/A   Overcast
1:53 AM 51.1 °F 37.9 °F 61% 30.11 in 10.0 mi East 4.6 mph - N/A   Overcast
2:53 AM 50.0 °F 37.9 °F 63% 30.10 in 10.0 mi ENE 6.9 mph - N/A   Overcast
3:53 AM 52.0 °F 34.0 °F 50% 30.08 in 10.0 mi ENE 8.1 mph - N/A   Overcast
4:53 AM 53.1 °F 30.9 °F 43% 30.07 in 10.0 mi ENE 6.9 mph - N/A   Overcast
5:53 AM 52.0 °F 30.0 °F 43% 30.08 in 10.0 mi ENE 6.9 mph - N/A   Overcast
6:53 AM 52.0 °F 30.0 °F 43% 30.08 in 10.0 mi ENE 5.8 mph - N/A   Overcast
7:53 AM 53.1 °F 28.9 °F 40% 30.11 in 10.0 mi East 10.4 mph - N/A   Overcast
8:53 AM 53.1 °F 30.0 °F 41% 30.14 in 10.0 mi East 8.1 mph - N/A   Overcast
9:53 AM 53.1 °F 30.9 °F 43% 30.14 in 8.0 mi East 9.2 mph - N/A   Overcast
10:53 AM 54.0 °F 32.0 °F 43% 30.14 in 10.0 mi ESE 11.5 mph - N/A   Overcast
11:53 AM 54.0 °F 34.0 °F 47% 30.14 in 10.0 mi ESE 11.5 mph - N/A   Overcast
12:53 PM 55.9 °F 35.1 °F 45% 30.10 in 9.0 mi East 6.9 mph - N/A   Overcast
1:53 PM 55.9 °F 35.1 °F 45% 30.07 in 10.0 mi ESE 10.4 mph - N/A   Overcast
2:53 PM 54.0 °F 39.0 °F 57% 30.00 in 10.0 mi East 11.5 mph - 0.00 in Rain Light Rain
3:53 PM 52.0 °F 43.0 °F 71% 29.99 in 7.0 mi ESE 8.1 mph - 0.02 in Rain Light Rain
4:53 PM 52.0 °F 44.1 °F 74% 29.96 in 9.0 mi East 11.5 mph - 0.03 in   Overcast
5:53 PM 54.0 °F 43.0 °F 66% 29.95 in 10.0 mi East 12.7 mph - N/A   Mostly Cloudy
6:53 PM 54.0 °F 39.9 °F 59% 29.96 in 10.0 mi East 10.4 mph - N/A   Overcast
7:53 PM 54.0 °F 39.0 °F 57% 29.98 in 10.0 mi East 8.1 mph - N/A   Mostly Cloudy
8:53 PM 52.0 °F 39.0 °F 61% 29.97 in 10.0 mi East 9.2 mph - N/A   Mostly Cloudy
9:53 PM 52.0 °F 42.1 °F 69% 29.98 in 10.0 mi ENE 9.2 mph - N/A   Overcast
10:53 PM 52.0 °F 41.0 °F 66% 29.98 in 10.0 mi ENE 10.4 mph - N/A   Overcast
11:53 PM 52.0 °F 39.9 °F 63% 29.97 in 10.0 mi ENE 9.2 mph - N/A   Overcast